Time,TemperatureF,DewpointF,PressureIn,WindDirection,WindDirectionDegrees,WindSpeedMPH,WindSpeedGustMPH,Humidity,HourlyPrecipIn,Conditions,Clouds,dailyrainin,SoftwareType,DateUTC
2013-06-22 00:08:00,63.1,53.0,30.20,NW,309,0.0,1.0,70,0.00,,,0.00,weatherlink.com 1.10,2013-06-22 04:08:00,
2013-06-22 00:24:00,63.3,52.0,30.19,NNW,329,0.0,1.0,67,0.00,,,0.00,weatherlink.com 1.10,2013-06-22 04:24:00,
2013-06-22 00:40:00,64.2,52.0,30.19,North,355,1.0,2.0,64,0.00,,,0.00,weatherlink.com 1.10,2013-06-22 04:40:00,
2013-06-22 00:57:00,63.6,53.0,30.19,NW,310,0.0,1.0,68,0.00,,,0.00,weatherlink.com 1.10,2013-06-22 04:57:00,
2013-06-22 01:13:00,63.3,53.0,30.20,NNW,344,0.0,1.0,69,0.00,,,0.00,weatherlink.com 1.10,2013-06-22 05:13:00,
2013-06-22 01:29:00,61.8,52.0,30.20,North,350,0.0,1.0,71,0.00,,,0.00,weatherlink.com 1.10,2013-06-22 05:29:00,
2013-06-22 01:45:00,61.2,51.0,30.20,North,350,0.0,1.0,70,0.00,,,0.00,weatherlink.com 1.10,2013-06-22 05:45:00,
2013-06-22 02:02:00,61.1,51.0,30.20,North,350,0.0,1.0,70,0.00,,,0.00,weatherlink.com 1.10,2013-06-22 06:02:00,
2013-06-22 02:18:00,60.8,52.0,30.19,North,350,0.0,1.0,72,0.00,,,0.00,weatherlink.com 1.10,2013-06-22 06:18:00,
2013-06-22 02:34:00,61.4,52.0,30.19,NNW,341,0.0,1.0,70,0.00,,,0.00,weatherlink.com 1.10,2013-06-22 06:34:00,
2013-06-22 02:50:00,61.0,52.0,30.19,NW,307,0.0,1.0,73,0.00,,,0.00,weatherlink.com 1.10,2013-06-22 06:50:00,
2013-06-22 03:07:00,60.9,52.0,30.19,WNW,287,0.0,1.0,73,0.00,,,0.00,weatherlink.com 1.10,2013-06-22 07:07:00,
2013-06-22 03:23:00,60.3,52.0,30.19,WNW,287,0.0,1.0,75,0.00,,,0.00,weatherlink.com 1.10,2013-06-22 07:23:00,
2013-06-22 03:39:00,60.2,53.0,30.18,WNW,289,1.0,1.0,76,0.00,,,0.00,weatherlink.com 1.10,2013-06-22 07:39:00,
2013-06-22 03:55:00,59.3,52.0,30.18,NW,308,0.0,1.0,78,0.00,,,0.00,weatherlink.com 1.10,2013-06-22 07:55:00,
2013-06-22 04:12:00,58.6,53.0,30.18,NNW,341,0.0,1.0,83,0.00,,,0.00,weatherlink.com 1.10,2013-06-22 08:12:00,
2013-06-22 04:28:00,58.6,54.0,30.18,NNW,341,0.0,1.0,86,0.00,,,0.00,weatherlink.com 1.10,2013-06-22 08:28:00,
2013-06-22 04:44:00,58.0,54.0,30.18,NNW,341,0.0,1.0,86,0.00,,,0.00,weatherlink.com 1.10,2013-06-22 08:44:00,
2013-06-22 05:00:00,58.2,54.0,30.18,NNW,341,1.0,1.0,85,0.00,,,0.00,weatherlink.com 1.10,2013-06-22 09:00:00,
2013-06-22 05:16:00,57.6,54.0,30.18,NW,305,0.0,1.0,88,0.00,,,0.00,weatherlink.com 1.10,2013-06-22 09:16:00,
2013-06-22 05:33:00,57.4,54.0,30.18,NW,305,0.0,1.0,89,0.00,,,0.00,weatherlink.com 1.10,2013-06-22 09:33:00,
2013-06-22 05:49:00,57.6,55.0,30.19,NW,305,1.0,1.0,92,0.00,,,0.00,weatherlink.com 1.10,2013-06-22 09:49:00,
2013-06-22 06:05:00,58.3,56.0,30.19,NNE,14,0.0,1.0,93,0.00,,,0.00,weatherlink.com 1.10,2013-06-22 10:05:00,
2013-06-22 06:21:00,58.6,56.0,30.19,NNE,12,0.0,0.0,92,0.00,,,0.00,weatherlink.com 1.10,2013-06-22 10:21:00,
2013-06-22 06:38:00,59.2,57.0,30.17,NNW,331,0.0,1.0,92,0.00,,,0.00,weatherlink.com 1.10,2013-06-22 10:38:00,
2013-06-22 06:54:00,60.2,58.0,30.17,NNW,329,0.0,0.0,92,0.00,,,0.00,weatherlink.com 1.10,2013-06-22 10:54:00,
2013-06-22 07:10:00,60.8,58.0,30.16,NNW,329,0.0,1.0,90,0.00,,,0.00,weatherlink.com 1.10,2013-06-22 11:10:00,
2013-06-22 07:26:00,62.8,59.0,30.16,NNW,329,0.0,1.0,87,0.00,,,0.00,weatherlink.com 1.10,2013-06-22 11:26:00,
2013-06-22 07:43:00,64.9,60.0,30.16,NNW,327,0.0,1.0,85,0.00,,,0.00,weatherlink.com 1.10,2013-06-22 11:43:00,
2013-06-22 07:59:00,64.8,60.0,30.17,NW,323,0.0,0.0,85,0.00,,,0.00,weatherlink.com 1.10,2013-06-22 11:59:00,
2013-06-22 08:15:00,65.2,61.0,30.17,NW,324,0.0,1.0,85,0.00,,,0.00,weatherlink.com 1.10,2013-06-22 12:15:00,
2013-06-22 08:31:00,66.6,62.0,30.17,NW,324,0.0,1.0,84,0.00,,,0.00,weatherlink.com 1.10,2013-06-22 12:31:00,
2013-06-22 08:48:00,68.4,62.0,30.17,NW,324,1.0,1.0,81,0.00,,,0.00,weatherlink.com 1.10,2013-06-22 12:48:00,
2013-06-22 09:04:00,69.0,63.0,30.17,North,1,0.0,1.0,81,0.00,,,0.00,weatherlink.com 1.10,2013-06-22 13:04:00,
2013-06-22 09:20:00,70.5,64.0,30.16,NW,314,0.0,1.0,80,0.00,,,0.00,weatherlink.com 1.10,2013-06-22 13:20:00,
2013-06-22 09:36:00,72.0,63.0,30.17,West,275,1.0,4.0,74,0.00,,,0.00,weatherlink.com 1.10,2013-06-22 13:36:00,
2013-06-22 09:52:00,72.4,63.0,30.17,WNW,282,1.0,5.0,73,0.00,,,0.00,weatherlink.com 1.10,2013-06-22 13:52:00,
2013-06-22 10:09:00,72.3,63.0,30.17,West,281,2.0,8.0,73,0.00,,,0.00,weatherlink.com 1.10,2013-06-22 14:09:00,
2013-06-22 10:25:00,72.2,63.0,30.18,West,271,1.0,7.0,74,0.00,,,0.00,weatherlink.com 1.10,2013-06-22 14:25:00,
2013-06-22 10:41:00,72.6,63.0,30.17,WSW,253,2.0,9.0,73,0.00,,,0.00,weatherlink.com 1.10,2013-06-22 14:41:00,
2013-06-22 10:57:00,74.4,64.0,30.17,North,355,3.0,6.0,71,0.00,,,0.00,weatherlink.com 1.10,2013-06-22 14:57:00,
2013-06-22 11:14:00,76.0,65.0,30.18,NNW,343,2.0,10.0,68,0.00,,,0.00,weatherlink.com 1.10,2013-06-22 15:14:00,
2013-06-22 11:30:00,76.2,65.0,30.17,West,269,0.0,5.0,69,0.00,,,0.00,weatherlink.com 1.10,2013-06-22 15:30:00,
2013-06-22 11:46:00,76.6,64.0,30.17,West,260,0.0,8.0,66,0.00,,,0.00,weatherlink.com 1.10,2013-06-22 15:46:00,
2013-06-22 12:02:00,76.6,65.0,30.16,WSW,246,2.0,9.0,68,0.00,,,0.00,weatherlink.com 1.10,2013-06-22 16:02:00,
2013-06-22 12:19:00,77.7,65.0,30.16,WSW,241,3.0,10.0,66,0.00,,,0.00,weatherlink.com 1.10,2013-06-22 16:19:00,
2013-06-22 12:35:00,77.4,63.0,30.16,West,275,2.0,11.0,62,0.00,,,0.00,weatherlink.com 1.10,2013-06-22 16:35:00,
2013-06-22 12:51:00,77.2,64.0,30.16,WNW,295,0.0,13.0,64,0.00,,,0.00,weatherlink.com 1.10,2013-06-22 16:51:00,
2013-06-22 13:07:00,77.9,64.0,30.15,SW,231,3.0,9.0,63,0.00,,,0.00,weatherlink.com 1.10,2013-06-22 17:07:00,
2013-06-22 13:24:00,77.7,64.0,30.15,South,187,8.0,11.0,63,0.00,,,0.00,weatherlink.com 1.10,2013-06-22 17:24:00,
2013-06-22 13:40:00,77.4,64.0,30.14,WSW,237,3.0,10.0,64,0.00,,,0.00,weatherlink.com 1.10,2013-06-22 17:40:00,
2013-06-22 13:56:00,78.2,64.0,30.14,SW,227,3.0,14.0,62,0.00,,,0.00,weatherlink.com 1.10,2013-06-22 17:56:00,
2013-06-22 14:12:00,79.0,65.0,30.13,WSW,246,7.0,13.0,63,0.00,,,0.00,weatherlink.com 1.10,2013-06-22 18:12:00,
2013-06-22 14:29:00,78.9,63.0,30.14,WSW,254,6.0,12.0,58,0.00,,,0.00,weatherlink.com 1.10,2013-06-22 18:29:00,
2013-06-22 14:45:00,78.9,63.0,30.13,SSW,211,5.0,11.0,58,0.00,,,0.00,weatherlink.com 1.10,2013-06-22 18:45:00,
2013-06-22 15:01:00,78.6,63.0,30.12,SW,228,6.0,13.0,58,0.00,,,0.00,weatherlink.com 1.10,2013-06-22 19:01:00,
2013-06-22 15:17:00,79.6,63.0,30.11,NW,320,2.0,11.0,56,0.00,,,0.00,weatherlink.com 1.10,2013-06-22 19:17:00,
2013-06-22 15:33:00,80.5,62.0,30.11,WSW,244,3.0,10.0,53,0.00,,,0.00,weatherlink.com 1.10,2013-06-22 19:33:00,
2013-06-22 15:49:00,79.8,62.0,30.10,WSW,244,2.0,7.0,54,0.00,,,0.00,weatherlink.com 1.10,2013-06-22 19:49:00,
2013-06-22 16:06:00,79.9,63.0,30.10,West,274,2.0,6.0,57,0.00,,,0.00,weatherlink.com 1.10,2013-06-22 20:06:00,
2013-06-22 16:22:00,79.6,63.0,30.10,WSW,258,2.0,6.0,57,0.00,,,0.00,weatherlink.com 1.10,2013-06-22 20:22:00,
2013-06-22 16:38:00,79.8,63.0,30.10,NNW,328,1.0,5.0,57,0.00,,,0.00,weatherlink.com 1.10,2013-06-22 20:38:00,
2013-06-22 16:54:00,78.3,63.0,30.10,West,275,0.0,4.0,60,0.00,,,0.00,weatherlink.com 1.10,2013-06-22 20:54:00,
2013-06-22 17:11:00,78.3,64.0,30.09,West,267,1.0,3.0,62,0.00,,,0.00,weatherlink.com 1.10,2013-06-22 21:11:00,
2013-06-22 17:27:00,80.7,64.0,30.09,West,275,1.0,3.0,57,0.00,,,0.00,weatherlink.com 1.10,2013-06-22 21:27:00,
2013-06-22 17:43:00,79.4,65.0,30.09,West,264,2.0,2.0,62,0.00,,,0.00,weatherlink.com 1.10,2013-06-22 21:43:00,
2013-06-22 17:59:00,79.4,64.0,30.08,WSW,256,0.0,2.0,59,0.00,,,0.00,weatherlink.com 1.10,2013-06-22 21:59:00,
2013-06-22 18:16:00,79.7,65.0,30.08,WNW,282,1.0,2.0,60,0.00,,,0.00,weatherlink.com 1.10,2013-06-22 22:16:00,
2013-06-22 18:32:00,79.1,65.0,30.09,WSW,241,0.0,2.0,62,0.00,,,0.00,weatherlink.com 1.10,2013-06-22 22:32:00,
2013-06-22 18:48:00,79.3,65.0,30.08,West,264,0.0,0.0,62,0.00,,,0.00,weatherlink.com 1.10,2013-06-22 22:48:00,
2013-06-22 19:04:00,80.1,66.0,30.08,West,265,0.0,1.0,62,0.00,,,0.00,weatherlink.com 1.10,2013-06-22 23:04:00,
2013-06-22 19:20:00,78.7,67.0,30.08,West,277,0.0,1.0,68,0.00,,,0.00,weatherlink.com 1.10,2013-06-22 23:20:00,
2013-06-22 19:37:00,76.2,67.0,30.08,West,280,0.0,1.0,73,0.00,,,0.00,weatherlink.com 1.10,2013-06-22 23:37:00,
2013-06-22 19:53:00,74.4,65.0,30.08,WNW,295,0.0,1.0,73,0.00,,,0.00,weatherlink.com 1.10,2013-06-22 23:53:00,
2013-06-22 20:09:00,73.4,65.0,30.08,WNW,295,0.0,1.0,74,0.00,,,0.00,weatherlink.com 1.10,2013-06-23 00:09:00,
2013-06-22 20:26:00,72.7,64.0,30.08,NW,320,0.0,1.0,75,0.00,,,0.00,weatherlink.com 1.10,2013-06-23 00:26:00,
2013-06-22 20:42:00,73.2,62.0,30.09,West,271,0.0,2.0,69,0.00,,,0.00,weatherlink.com 1.10,2013-06-23 00:42:00,
2013-06-22 20:59:00,73.4,62.0,30.09,WNW,295,0.0,3.0,68,0.00,,,0.00,weatherlink.com 1.10,2013-06-23 00:59:00,
2013-06-22 21:15:00,73.4,62.0,30.09,West,270,0.0,2.0,68,0.00,,,0.00,weatherlink.com 1.10,2013-06-23 01:15:00,
2013-06-22 21:31:00,71.8,65.0,30.10,North,355,0.0,2.0,79,0.00,,,0.00,weatherlink.com 1.10,2013-06-23 01:31:00,
2013-06-22 21:47:00,71.0,65.0,30.10,NW,313,0.0,1.0,80,0.00,,,0.00,weatherlink.com 1.10,2013-06-23 01:47:00,
2013-06-22 22:03:00,70.5,64.0,30.11,NW,317,0.0,1.0,81,0.00,,,0.00,weatherlink.com 1.10,2013-06-23 02:03:00,
2013-06-22 22:20:00,69.6,65.0,30.11,NW,317,0.0,1.0,84,0.00,,,0.00,weatherlink.com 1.10,2013-06-23 02:20:00,
2013-06-22 22:36:00,68.8,64.0,30.12,NW,317,0.0,1.0,86,0.00,,,0.00,weatherlink.com 1.10,2013-06-23 02:36:00,
2013-06-22 22:52:00,68.4,65.0,30.12,NW,309,0.0,2.0,88,0.00,,,0.00,weatherlink.com 1.10,2013-06-23 02:52:00,
2013-06-22 23:08:00,67.8,65.0,30.12,East,95,0.0,1.0,90,0.00,,,0.00,weatherlink.com 1.10,2013-06-23 03:08:00,
2013-06-22 23:24:00,67.0,65.0,30.12,East,95,0.0,1.0,93,0.01,,,0.01,weatherlink.com 1.10,2013-06-23 03:24:00,
2013-06-22 23:41:00,66.4,64.0,30.11,ENE,66,0.0,2.0,91,0.01,,,0.01,weatherlink.com 1.10,2013-06-23 03:41:00,
2013-06-22 23:57:00,67.0,64.0,30.11,WNW,288,0.0,3.0,90,0.01,,,0.01,weatherlink.com 1.10,2013-06-23 03:57:00,